[[{"header":{"parameterUnit":"m.s-1","parameterCategory":1,"la1":30.2991,"la2":30.254,"lo1":-89.0895,"lo2":-89.0444,"dy":0.0017,"dx":0.0017,"nx":28,"ny":28,"refTime":"2024-03-19T21:00:00:Z","depth":0,"parameterNumber":2,"parameterNumberName":"U-component_of_WINDS"},"data":[0,0,0,0,0,0,0,0,0,0,0,0,0,0,0,0,0,0,0,0,0,0,0,0,0,0,0,0,0,0,0,0,0,0,0,0,0,0,0,0,0,0,0,0,0,0,0,0,0,0,0,0,0,0,0,0,0,0,3.0638,3.0639,0,3.0748,3.075,3.0751,3.075,3.0749,3.0747,3.0746,3.0857,3.0861,3.0865,0,0,0,0,0,0,0,0,0,0,0,0,0,3.0422,3.0426,3.0638,3.0639,3.064,3.0748,3.075,3.0751,3.075,3.0749,3.0747,3.0745,3.0855,3.086,3.0865,0,0,0,0,0,0,0,0,0,0,0,0,0,3.0522,3.0427,3.0637,3.0653,3.0656,3.0748,3.075,3.0752,3.0751,3.0749,3.0746,3.0744,3.0853,3.086,3.0866,3.0949,0,0,3.0886,3.0888,0,0,0,0,0,0,0,0,3.0517,3.053,3.0649,3.0652,3.0655,3.0733,3.0714,3.0818,3.0751,3.0715,3.0746,3.0743,3.0817,3.0826,3.0852,3.0954,3.0959,3.0886,3.089,3.0893,3.0895,0,0,0,0,0,0,0,3.051,3.0525,3.0681,3.0651,3.0655,3.0653,3.0665,3.0734,3.0777,3.0718,3.0718,3.0731,3.0818,3.0846,3.0854,3.0961,3.0886,3.0892,3.0896,3.0898,3.1134,3.1136,0,0,0,0,0,0,3.05,3.052,3.0678,3.0685,3.0579,3.0659,3.0672,3.071,3.0776,3.0784,3.0733,3.0731,3.0836,3.0847,3.0858,3.0958,3.0893,3.0899,3.0903,3.1131,3.1134,3.1137,0,0,0,0,0,0,3.0495,3.0514,3.0673,3.0602,3.0622,3.0665,3.0708,3.0714,3.0741,3.0787,3.0795,3.0753,3.0834,3.0849,3.0926,3.0961,3.0902,3.0908,3.1129,3.1132,3.1136,3.1158,0,0,0,0,0,0,3.0489,3.0512,3.0545,3.0603,3.0626,3.0741,3.071,3.0717,3.0752,3.0751,3.0808,3.0816,3.0834,3.0916,3.0932,3.0969,3.0913,3.1126,3.113,3.1135,3.1155,3.1162,3.1169,0,0,0,0,0,3.0481,3.0547,3.0547,3.0566,3.0669,3.0743,3.0756,3.0776,3.0755,3.0788,3.0817,3.0814,3.0956,3.0924,3.0942,3.0982,3.1123,3.1129,3.1134,3.1151,3.1161,3.1169,0,0,0,0,0,0,3.0492,3.0555,3.0556,3.0643,3.0687,3.0742,3.0784,3.0786,3.0837,3.0833,3.0855,3.0868,3.0944,3.0971,3.0935,3.1064,3.1037,3.1046,3.1044,3.1053,3.106,3.1051,3.0918,0,0,0,0,0,3.0505,3.0561,3.0613,3.0684,3.0707,3.0742,3.0775,3.0786,3.0833,3.0852,3.0887,3.0932,3.0986,3.1021,3.1074,3.1159,3.117,3.1195,3.1202,3.1207,3.1214,3.1259,3.1269,3.1155,3.1155,3.1155,0,0,3.0531,3.0573,3.0606,3.0687,3.0723,3.0779,3.0758,3.0818,3.0859,3.0861,3.0935,3.0962,3.1014,3.1094,3.1131,3.1119,3.1249,3.1214,3.1218,3.1223,3.1265,3.1276,3.1286,3.1158,3.1158,3.1157,0,0,3.0607,3.0645,3.0708,3.0744,3.0799,3.0822,3.0837,3.0892,3.091,3.0985,3.0987,3.1036,3.113,3.1165,3.1195,3.1284,3.1281,3.13,3.1337,3.1379,3.1388,3.1396,3.1425,3.1436,3.1307,3.1308,3.1308,0,3.0633,3.0718,3.074,3.08,3.0834,3.0839,3.0901,3.0935,3.1004,3.1027,3.1013,3.1129,3.1164,3.1252,3.1273,3.1299,3.1314,3.1293,3.1386,3.1394,3.1402,3.1429,3.1441,3.1309,3.1309,3.1309,3.1309,0,3.0745,3.0804,3.0848,3.0914,3.0954,3.1015,3.1044,3.1082,3.109,3.1113,3.1188,3.123,3.1291,3.1313,3.1321,3.1401,3.1391,3.1381,3.1354,3.1414,3.144,3.1451,3.1312,3.1311,3.1311,3.131,0,0,3.0831,3.0908,3.0923,3.0953,3.1013,3.1058,3.1119,3.1178,3.1208,3.1256,3.1305,3.1384,3.1374,3.1409,3.1421,3.1459,3.1523,3.1444,3.1445,3.1455,3.161,3.1616,3.1628,3.1523,3.1525,3.1527,3.1605,0,3.0911,3.1019,3.104,3.1133,3.1186,3.1191,3.1243,3.1285,3.1309,3.1356,3.1382,3.1436,3.1421,3.1441,3.1479,3.1507,3.1554,3.1502,3.1567,3.1569,3.1551,3.1642,3.1649,3.1721,3.1616,3.1618,3.1619,0,3.102,3.1069,3.1168,3.1219,3.1242,3.1289,3.1344,3.139,3.1437,3.1451,3.1489,3.1497,3.1558,3.1529,3.1612,3.1576,3.1604,3.1621,3.1624,3.1629,3.1596,3.1647,3.1745,3.1755,3.1636,3.1634,3.1633,0,3.1069,3.1161,3.1231,3.1256,3.1319,3.1351,3.1378,3.1423,3.1456,3.1504,3.1526,3.158,3.1609,3.165,3.1672,3.1649,3.1752,3.1726,3.1763,3.1763,3.1783,3.1781,3.1884,3.1805,3.1805,3.1805,3.1805,0,3.1155,3.1215,3.1253,3.1296,3.1362,3.1385,3.1449,3.1476,3.1515,3.1562,3.157,3.1614,3.1641,3.1688,3.1705,3.1769,3.1783,3.1795,3.1798,3.1793,3.1791,3.1809,3.1804,3.1808,3.1807,3.1807,3.1806,0,3.1221,3.125,3.1326,3.1378,3.1393,3.1439,3.1483,3.1524,3.1547,3.1606,3.1622,3.1658,3.1713,3.1739,3.1808,3.182,3.1892,3.1894,3.1876,3.1877,3.1913,3.1908,3.2029,3.2045,3.1958,3.1959,3.1959,0,3.1273,3.1319,3.1376,3.1408,3.1436,3.1488,3.1522,3.1546,3.1581,3.1637,3.167,3.1726,3.1772,3.186,3.1892,3.1944,3.1945,3.1984,3.1953,3.1945,3.1942,3.1938,3.1942,3.1989,3.1989,3.199,3.1991,0,3.1362,3.1373,3.1423,3.1477,3.1517,3.1561,3.1604,3.1629,3.1659,3.1698,3.1755,3.1791,3.186,3.1915,3.1969,3.1995,3.1997,3.2001,3.2012,3.2005,3.1992,3.1997,3.1889,3.1997,3.1997,3.1996,3.1996,3.1996,3.142,3.146,3.1506,3.156,3.1595,3.1634,3.1675,3.1703,3.1751,3.181,3.1821,3.1881,3.1924,3.1997,3.2025,3.2071,3.2062,3.2079,3.2083,3.2086,3.2086,3.1987,3.2082,3.2082,3.2081,3.2081,3.2081,0,3.1507,3.1537,3.1587,3.1646,3.1688,3.1687,3.1734,3.1769,3.1822,3.1863,3.1907,3.1971,3.2024,3.206,3.2112,3.2142,3.2144,3.2155,3.2152,3.2157,3.2093,3.2077,3.2152,3.2152,3.2152,3.2152,3.2152,3.2152,3.1557,3.1624,3.164,3.1723,3.1752,3.1811,3.1838,3.1873,3.1906,3.1977,3.2021,3.2044,3.2082,3.2138,3.2185,3.2194,3.2212,3.2223,3.2231,3.217,3.2162,3.2155,3.214,3.2227,3.2227,3.2291,3.2292,3.2292]},{"header":{"parameterUnit":"m.s-1","parameterCategory":1,"la1":30.2991,"la2":30.254,"lo1":-89.0895,"lo2":-89.0444,"dy":0.0017,"dx":0.0017,"nx":28,"ny":28,"refTime":"2024-03-19T21:00:00:Z","depth":0,"parameterNumber":3,"parameterNumberName":"V-component_of_WINDS"},"data":[0,0,0,0,0,0,0,0,0,0,0,0,0,0,0,0,0,0,0,0,0,0,0,0,0,0,0,0,0,0,0,0,0,0,0,0,0,0,0,0,0,0,0,0,0,0,0,0,0,0,0,0,0,0,0,0,0,0,-0.8237,-0.8237,0,-0.8286,-0.8287,-0.8287,-0.8302,-0.8302,-0.8302,-0.8301,-0.8352,-0.8353,-0.8355,0,0,0,0,0,0,0,0,0,0,0,0,0,-0.8155,-0.8156,-0.8237,-0.8237,-0.8238,-0.8286,-0.8287,-0.8288,-0.8302,-0.8302,-0.8302,-0.8301,-0.8351,-0.8353,-0.8355,0,0,0,0,0,0,0,0,0,0,0,0,0,-0.8196,-0.8157,-0.8237,-0.8251,-0.8253,-0.8286,-0.8287,-0.8288,-0.8302,-0.8302,-0.8302,-0.8301,-0.8351,-0.8353,-0.8355,-0.8378,0,0,-0.8363,-0.8364,0,0,0,0,0,0,0,0,-0.8194,-0.8199,-0.8248,-0.825,-0.8252,-0.8288,-0.8277,-0.8318,-0.8302,-0.8284,-0.8301,-0.8301,-0.8331,-0.8335,-0.8345,-0.838,-0.8382,-0.8363,-0.8364,-0.8365,-0.8366,0,0,0,0,0,0,0,-0.8191,-0.8197,-0.8256,-0.8249,-0.8252,-0.8255,-0.8261,-0.8285,-0.8309,-0.8285,-0.8286,-0.8292,-0.8332,-0.8343,-0.8346,-0.8383,-0.8363,-0.8365,-0.8366,-0.8367,-0.8439,-0.8439,0,0,0,0,0,0,-0.8186,-0.8195,-0.8255,-0.8258,-0.8222,-0.8257,-0.8263,-0.8277,-0.8308,-0.8313,-0.8292,-0.8293,-0.8339,-0.8343,-0.8348,-0.8376,-0.8365,-0.8367,-0.8369,-0.8438,-0.8439,-0.8439,0,0,0,0,0,0,-0.8184,-0.8191,-0.8253,-0.8227,-0.8235,-0.8259,-0.8274,-0.8278,-0.8289,-0.8314,-0.8318,-0.8299,-0.8339,-0.8345,-0.837,-0.8378,-0.8368,-0.8371,-0.8438,-0.8439,-0.8439,-0.8432,0,0,0,0,0,0,-0.8181,-0.819,-0.8199,-0.8227,-0.8236,-0.8274,-0.8275,-0.8279,-0.8293,-0.8294,-0.8321,-0.8325,-0.8339,-0.8367,-0.8372,-0.8381,-0.8372,-0.8437,-0.8438,-0.8439,-0.8432,-0.8433,-0.8433,0,0,0,0,0,-0.8178,-0.8195,-0.8199,-0.8206,-0.8247,-0.8275,-0.828,-0.8295,-0.8293,-0.8302,-0.8319,-0.8325,-0.8376,-0.8369,-0.8376,-0.8385,-0.8437,-0.8438,-0.8439,-0.8431,-0.8432,-0.8433,0,0,0,0,0,0,-0.8167,-0.8199,-0.8204,-0.823,-0.8249,-0.8277,-0.8289,-0.8296,-0.8316,-0.8316,-0.8334,-0.834,-0.8364,-0.8377,-0.8369,-0.8409,-0.8407,-0.8409,-0.8399,-0.84,-0.8401,-0.8397,-0.8374,0,0,0,0,0,-0.8167,-0.8187,-0.8214,-0.8234,-0.8243,-0.8264,-0.8277,-0.8287,-0.8308,-0.8316,-0.8334,-0.8354,-0.8375,-0.8388,-0.8409,-0.8434,-0.844,-0.8444,-0.8445,-0.8445,-0.8447,-0.8461,-0.8463,-0.8443,-0.8443,-0.8443,0,0,-0.8169,-0.8188,-0.8199,-0.8232,-0.8248,-0.8268,-0.8271,-0.8292,-0.8306,-0.8319,-0.8344,-0.8358,-0.8382,-0.8407,-0.8419,-0.8419,-0.8454,-0.8447,-0.8447,-0.8448,-0.8463,-0.8464,-0.8466,-0.8444,-0.8444,-0.8444,0,0,-0.818,-0.8198,-0.8216,-0.8233,-0.8257,-0.8271,-0.8276,-0.8303,-0.8312,-0.8338,-0.8348,-0.8366,-0.8401,-0.8418,-0.8431,-0.845,-0.8456,-0.8456,-0.8459,-0.8473,-0.8475,-0.8476,-0.8483,-0.8485,-0.8458,-0.8458,-0.8458,0,-0.8179,-0.8209,-0.8225,-0.8245,-0.8259,-0.8272,-0.8291,-0.8306,-0.8336,-0.8346,-0.8345,-0.839,-0.8407,-0.8436,-0.8441,-0.8451,-0.8457,-0.8452,-0.8473,-0.8475,-0.8477,-0.8483,-0.8485,-0.8458,-0.8458,-0.8458,-0.8458,0,-0.8205,-0.8226,-0.8238,-0.8267,-0.8282,-0.8302,-0.8321,-0.8335,-0.8344,-0.8358,-0.8383,-0.8404,-0.8429,-0.8437,-0.8446,-0.8468,-0.8467,-0.847,-0.8468,-0.8478,-0.8484,-0.8487,-0.8457,-0.8457,-0.8457,-0.8457,0,0,-0.821,-0.8248,-0.8253,-0.8266,-0.8294,-0.8311,-0.8331,-0.8356,-0.8367,-0.8388,-0.8405,-0.8435,-0.8438,-0.8452,-0.8463,-0.8475,-0.8489,-0.8477,-0.8478,-0.8478,-0.8514,-0.8512,-0.8514,-0.8494,-0.8494,-0.8495,-0.8512,0,-0.8226,-0.8262,-0.8277,-0.8307,-0.8326,-0.8339,-0.8356,-0.8376,-0.8389,-0.8408,-0.8423,-0.8444,-0.8446,-0.8455,-0.8468,-0.8484,-0.8496,-0.8484,-0.851,-0.851,-0.8503,-0.8518,-0.8515,-0.853,-0.8515,-0.8515,-0.8515,0,-0.8248,-0.8269,-0.83,-0.8326,-0.8335,-0.835,-0.8374,-0.8392,-0.8414,-0.8424,-0.844,-0.8451,-0.8473,-0.847,-0.85,-0.8491,-0.8503,-0.8513,-0.8514,-0.8516,-0.8513,-0.852,-0.8536,-0.8538,-0.852,-0.8519,-0.8519,0,-0.8248,-0.8284,-0.8307,-0.8319,-0.835,-0.8361,-0.8374,-0.8396,-0.841,-0.8431,-0.844,-0.8464,-0.8476,-0.8494,-0.8511,-0.8508,-0.8539,-0.8538,-0.8548,-0.8547,-0.8553,-0.8552,-0.8571,-0.8562,-0.8562,-0.8561,-0.8561,0,-0.8263,-0.8282,-0.8308,-0.8322,-0.8343,-0.8361,-0.8382,-0.8396,-0.8416,-0.8433,-0.8446,-0.8462,-0.8483,-0.8502,-0.8515,-0.8538,-0.8544,-0.8552,-0.8555,-0.855,-0.8549,-0.8558,-0.8557,-0.8562,-0.8562,-0.8562,-0.8562,0,-0.8267,-0.8285,-0.8311,-0.8339,-0.8347,-0.8361,-0.8385,-0.8399,-0.8414,-0.8436,-0.8442,-0.8465,-0.8488,-0.8506,-0.8536,-0.8545,-0.8569,-0.8573,-0.8561,-0.8563,-0.8571,-0.857,-0.8595,-0.8599,-0.8587,-0.8587,-0.8587,0,-0.8275,-0.829,-0.8319,-0.8331,-0.8345,-0.8365,-0.8379,-0.8398,-0.8412,-0.8439,-0.845,-0.8474,-0.8494,-0.853,-0.8549,-0.8572,-0.8576,-0.8584,-0.858,-0.8575,-0.8576,-0.8575,-0.8576,-0.8584,-0.8584,-0.8584,-0.8584,0,-0.8287,-0.8296,-0.8316,-0.8339,-0.8356,-0.8375,-0.8395,-0.8404,-0.8426,-0.8442,-0.8465,-0.8481,-0.8511,-0.8535,-0.856,-0.8574,-0.8583,-0.8585,-0.8588,-0.8583,-0.8576,-0.858,-0.8562,-0.8584,-0.8584,-0.8584,-0.8584,-0.8584,-0.8293,-0.8307,-0.833,-0.8351,-0.8368,-0.8386,-0.8401,-0.8418,-0.8438,-0.8464,-0.8474,-0.8498,-0.852,-0.8555,-0.8569,-0.8589,-0.8589,-0.8594,-0.8595,-0.8596,-0.8595,-0.8573,-0.8593,-0.8593,-0.8593,-0.8593,-0.8593,0,-0.8306,-0.8321,-0.8341,-0.8368,-0.8386,-0.8392,-0.8414,-0.8428,-0.8449,-0.847,-0.8489,-0.8516,-0.8539,-0.8561,-0.8585,-0.8596,-0.8601,-0.8602,-0.8601,-0.8604,-0.8593,-0.8588,-0.8598,-0.8598,-0.8598,-0.8598,-0.8598,-0.8598,-0.8315,-0.8338,-0.8349,-0.838,-0.8396,-0.8419,-0.8431,-0.8448,-0.8465,-0.8494,-0.8513,-0.8527,-0.8548,-0.8574,-0.8595,-0.8601,-0.8609,-0.8609,-0.8616,-0.8605,-0.8605,-0.8604,-0.8599,-0.8611,-0.8611,-0.8625,-0.8625,-0.8625]}]]